Regional Weather Roundup
Issued by NWS

Home | Current Version | Previous Version | Graphics & Text | Print | Product List | Glossary On
Versions: 1 2 3 4 5 6 7 8 9 10 11 12 13 14 15 16 17 18 19 20 21 22 23 24 25 26 27 28 29 30 31 32 33 34 35 36 37 38 39 40 41 42 43 44 45 46 47 48 49 50
000
ASUS43 KFSD 290702
RWRSD

WEATHER ROUNDUP FOR SOUTH DAKOTA
NATIONAL WEATHER SERVICE SIOUX FALLS SD
200 AM CDT FRI MAY 29 2015

NOTE: "FAIR" INDICATES FEW OR NO CLOUDS BELOW 12,000 FEET WITH NO
SIGNIFICANT WEATHER AND/OR OBSTRUCTIONS TO VISIBILITY.


SDZ001>005-009-010-012>017-290800-
NORTHWEST AND NORTH CENTRAL SOUTH DAKOTA

CITY           SKY/WX    TMP DP  RH WIND       PRES   REMARKS
BUFFALO          N/A     56  52  86 N20       30.00S
FAITH            N/A     58  53  84 N13       29.96R
MOBRIDGE       CLOUDY    64  61  90 N12       29.88R
$$

SDZ012>016-024>037-041>051-057-063-072>074-290800-
SOUTHWEST AND SOUTH CENTRAL SOUTH DAKOTA

CITY           SKY/WX    TMP DP  RH WIND       PRES   REMARKS
RAPID CTY ARPT CLOUDY    58  50  75 NW23G30   29.99F
PIERRE         CLOUDY    60  57  89 W9        29.86F
CUSTER         CLOUDY    51  43  74 NW8       30.08F
ELLSWORTH AFB  CLOUDY    58  51  80 NW23      29.99F
PHILIP         CLOUDY    57  55  93 W9        29.94S
PINE RIDGE     CLOUDY    54  52  93 W8        30.03R
WINNER         FAIR      60  55  83 W9        29.89F
$$

SDZ004>011-016>023-039-040-290800-
NORTHEAST SOUTH DAKOTA

CITY           SKY/WX    TMP DP  RH WIND       PRES   REMARKS
ABERDEEN       CLOUDY    62  60  93 N8        29.86R
WATERTOWN      RAIN      61  58  90 E13G23    29.85F
BROOKINGS      MOCLDY    63  57  82 S5        29.86F
SISSETON         N/A     61  60  97 SE7       29.84F
$$

SDZ017-020-022-023-036>040-048>070-290800-
SOUTHEAST SOUTH DAKOTA

CITY           SKY/WX    TMP DP  RH WIND       PRES   REMARKS
SIOUX FALLS    MOCLDY    66  63  90 S10       29.85F
HURON            N/A    N/A N/A N/A MISG      29.83S
CHAMBERLAIN    CLOUDY    60  57  92 NW8       29.87F
MITCHELL       LGT RAIN  65  60  84 SW7       29.84F
YANKTON        CLOUDY    66  63  88 S9        29.85R
$$

ABBREVIATIONS USED IN REMARKS
   TC - TEMPERATURE IN CELSIUS
  WCI - WIND CHILL INDEX
   HX - HEAT INDEX
  VSB - VISIBILITY



USA.gov is the U.S. government's official web portal to all federal, state and local government web resources and services.